Wind_Speed
20 21 22 23 24 25 26 28 29 31 32 32 34 35 37 37 39 41 43 44 45 46 47 47 48 50 51 52 52 54 55 57 58 57 57 57 56 56 55 55 56 55 55
17 17 17 18 20 21 23 24 25 27 28 29 30 32 33 34 35 37 39 41 43 44 46 46 47 48 49 51 52 54 55 57 58 58 58 59 59 58 58 58 58 57 57
14 15 15 16 16 18 19 20 21 23 24 25 26 27 28 30 32 34 35 37 39 41 43 45 46 46 48 49 51 53 53 55 57 57 58 59 59 59 59 60 59 58 58
13 13 14 15 16 17 17 17 18 19 20 21 22 23 25 27 29 32 34 36 37 39 41 43 44 46 47 49 50 51 52 53 54 55 57 57 59 59 59 60 60 60 59
13 13 15 16 16 17 16 17 17 17 18 19 20 21 23 24 26 29 31 34 36 38 40 42 43 45 46 47 48 50 51 52 54 55 56 57 58 59 60 60 60 60 60
13 14 15 16 17 17 17 17 18 18 18 19 20 21 23 24 26 28 31 33 35 37 38 40 41 42 44 45 47 49 50 52 53 54 55 57 58 59 59 60 60 61 61
15 16 16 17 17 17 17 18 18 19 19 20 22 23 24 25 26 28 30 32 34 36 38 39 40 41 43 44 45 47 49 50 52 53 54 54 55 57 58 59 61 61 61
16 17 17 18 18 19 19 19 20 20 21 22 23 24 25 27 28 29 31 32 34 35 37 39 40 42 43 44 46 47 48 49 51 53 54 56 57 58 59 60 61 62 62
18 19 20 20 21 21 21 22 22 23 23 24 25 25 26 28 29 30 31 32 33 35 36 38 40 42 43 45 46 47 48 50 52 54 55 56 57 59 60 61 62 63 63
19 20 21 22 22 23 23 24 25 25 26 27 27 28 29 30 30 31 32 33 35 36 37 39 41 42 43 44 46 48 50 51 53 55 56 56 58 58 60 62 63 62 62
22 23 23 24 24 25 26 27 27 28 29 30 29 30 30 31 32 33 34 35 36 37 38 40 41 43 44 45 47 48 49 51 52 54 55 56 56 57 58 60 62 63 61
25 25 26 26 27 28 29 30 31 31 32 32 32 32 32 33 34 35 36 37 38 39 40 41 42 43 44 45 46 47 48 49 50 52 53 54 55 55 56 57 58 60 59
27 27 28 28 29 30 31 32 33 33 34 34 34 34 35 36 37 38 39 40 41 42 42 43 44 44 45 46 46 47 48 49 50 51 52 53 53 54 55 56 56 56 56
30 30 31 31 32 33 34 34 35 35 36 36 36 37 37 38 39 40 41 42 43 43 43 44 45 45 46 46 46 47 48 49 50 50 51 52 53 53 54 54 54 54 53
32 33 33 34 34 35 36 36 37 37 37 37 38 38 40 40 42 43 43 44 44 44 45 45 46 46 46 47 47 48 48 49 50 50 50 50 51 52 53 53 53 53 52
33 34 35 35 36 36 37 37 38 39 39 39 40 41 42 43 44 45 45 46 46 46 46 46 46 46 46 47 47 48 48 49 49 49 49 49 49 50 50 50 49 48 48
34 35 36 36 37 38 39 40 40 40 41 42 43 43 44 45 45 45 45 46 46 45 46 46 46 46 46 46 47 47 48 48 48 47 47 47 46 46 45 44 44 43 42
36 37 37 38 39 40 41 41 42 42 43 43 43 44 44 45 45 45 46 46 46 46 46 46 46 45 45 46 46 46 45 44 44 44 44 43 42 41 39 38 38 37 37
37 38 39 40 40 41 42 43 43 43 43 43 44 44 45 46 46 46 46 46 45 46 46 46 45 45 44 44 44 43 42 41 40 40 39 39 38 36 35 33 32 32 32
38 39 40 40 41 42 43 43 43 43 43 43 44 45 45 45 45 45 45 45 45 45 45 44 43 42 41 40 40 39 38 38 37 37 36 34 32 31 29 29 28 28 28
39 40 40 40 41 42 43 43 43 43 43 43 44 45 45 44 44 44 44 43 43 42 42 41 40 39 38 37 37 36 35 35 34 33 32 30 28 27 26 25 24 24 24
40 40 40 41 42 43 43 42 42 42 43 43 43 43 43 43 42 42 41 41 41 41 40 38 37 36 35 35 34 33 33 32 31 29 28 26 25 24 23 21 21 20 20
39 40 40 41 42 42 41 41 42 42 42 42 41 41 41 40 40 39 39 39 39 38 37 36 34 33 32 32 31 30 29 28 27 26 24 23 22 20 19 19 18 18 18
39 40 40 41 41 40 40 41 41 41 41 41 40 39 38 38 37 37 37 37 37 36 35 33 31 30 30 29 28 27 26 25 24 23 21 20 18 17 16 16 16 16 16
39 40 40 40 40 40 40 40 40 40 39 38 37 36 36 35 35 35 36 36 35 34 32 30 29 28 27 26 26 25 24 23 21 20 19 17 16 15 14 13 13 13 14
39 40 40 40 40 40 39 39 39 39 37 36 35 34 34 34 34 35 35 34 33 31 30 29 28 26 25 25 24 23 22 21 20 18 17 15 14 13 12 11 11 11 11
Wind_Direction
280 280 280 279 276 276 277 275 272 270 270 268 266 263 260 258 255 254 254 255 256 257 258 259 260 260 259 259 260 260 259 259 260 258 259 260 261 260 262 263 263 264 264
285 288 289 287 285 283 282 280 277 274 272 270 268 265 261 258 257 256 257 257 258 259 259 260 263 262 262 261 261 261 261 261 261 260 260 261 262 262 262 263 264 263 264
290 292 294 295 294 293 292 289 284 280 276 274 272 270 266 262 261 261 261 261 263 263 262 263 264 263 264 264 263 263 263 263 262 262 261 261 262 263 263 263 263 264 264
299 300 300 299 298 298 298 296 291 287 283 277 275 274 270 266 264 263 263 265 266 265 266 267 266 266 266 266 265 264 264 264 263 264 263 263 263 263 264 263 263 263 264
307 307 307 305 303 301 301 300 296 292 288 284 280 278 276 273 271 269 268 269 269 269 269 270 270 269 268 267 266 265 266 265 265 265 265 264 264 264 264 265 264 265 265
312 313 312 311 308 304 303 301 298 295 292 289 286 283 281 279 278 276 275 274 273 273 273 273 273 272 270 269 268 268 268 267 267 267 266 265 265 265 266 266 266 266 266
310 313 314 314 312 309 307 305 302 299 296 293 291 287 285 284 283 282 281 281 280 278 277 276 275 276 275 274 272 271 270 269 269 268 269 268 268 268 267 268 268 268 268
312 312 313 313 311 310 308 306 305 303 301 298 296 293 290 289 287 286 286 286 285 283 282 280 279 279 278 277 275 273 272 271 271 271 271 270 270 270 269 269 268 268 268
310 309 309 310 309 307 307 306 305 304 302 301 299 297 294 293 292 290 289 289 288 287 285 284 283 281 280 278 277 276 275 274 272 273 273 272 271 271 270 270 270 270 269
308 309 308 308 308 306 305 305 304 303 302 301 299 297 295 294 293 292 292 291 290 289 288 287 286 284 282 281 280 278 277 276 275 275 274 274 273 272 272 271 271 271 270
307 307 308 307 307 307 306 305 305 303 301 300 298 297 296 296 295 294 294 294 293 292 291 290 288 287 286 285 284 282 280 279 278 277 276 276 274 273 272 272 272 271 270
305 305 305 306 306 306 306 305 304 303 302 301 300 298 297 296 296 295 295 295 295 294 293 292 292 290 289 288 287 285 284 283 282 280 279 278 277 275 274 274 273 272 271
303 304 304 304 304 305 305 305 304 304 304 302 301 299 298 298 297 296 296 296 296 295 294 294 293 292 291 290 289 288 287 286 285 283 282 281 279 278 276 275 275 273 272
302 303 303 304 304 305 305 305 304 305 304 303 301 300 299 299 298 298 298 298 297 296 296 295 295 294 293 292 291 290 289 289 287 286 284 282 280 279 278 276 275 273 272
300 301 302 303 304 304 305 305 305 305 304 303 302 301 301 301 300 300 299 299 298 297 297 296 296 295 294 293 292 292 291 291 289 288 287 285 282 280 279 277 275 273 271
299 300 301 302 303 304 304 304 305 304 304 302 302 302 301 301 300 300 300 299 298 297 297 297 297 296 294 294 294 294 293 292 291 290 289 288 286 283 280 277 275 273 271
300 301 302 302 303 304 304 304 304 303 303 302 301 301 302 302 302 302 302 302 300 299 299 299 299 297 296 295 296 296 295 294 293 292 291 290 289 287 283 278 275 273 271
299 300 301 301 302 303 304 304 304 303 303 302 302 302 303 303 303 303 304 303 302 301 300 300 299 298 297 297 297 297 296 295 295 294 293 293 291 288 284 279 276 272 270
299 300 300 301 301 302 303 304 304 303 303 302 302 303 303 304 304 304 304 304 303 301 301 300 299 298 298 298 298 297 298 298 298 296 295 294 292 289 284 280 276 272 268
299 300 301 301 302 303 303 304 304 303 303 303 303 304 304 304 304 305 305 305 304 303 302 302 300 299 299 299 299 299 299 299 299 298 296 295 292 289 285 281 275 270 268
299 300 301 302 303 303 304 304 304 304 304 304 304 304 305 305 305 305 306 306 306 306 305 304 303 302 301 301 301 301 300 300 300 299 297 295 292 289 286 281 276 271 269
299 300 301 302 303 304 304 304 304 304 305 305 305 306 306 307 307 307 308 308 309 309 308 307 305 303 303 303 303 302 301 301 301 301 299 296 292 289 286 282 275 269 268
300 301 302 304 305 305 304 304 305 306 306 307 307 308 309 309 309 309 310 311 311 311 311 310 309 307 306 306 305 303 303 303 302 302 301 299 296 292 287 281 273 269 268
301 302 304 305 305 304 304 304 305 306 307 308 308 309 310 311 312 312 313 313 313 313 313 312 310 308 307 307 306 305 305 305 305 304 302 302 299 294 291 285 278 272 271
302 303 304 305 305 304 304 305 306 307 308 309 309 310 312 313 314 314 315 315 315 315 314 313 312 310 309 309 309 308 307 305 305 303 302 302 300 295 292 287 281 275 272
303 304 304 305 305 304 304 305 306 307 308 309 310 311 312 313 314 315 316 316 317 316 315 314 312 310 310 310 310 309 308 307 304 303 302 301 300 296 291 286 282 277 274
Height
5650 5647 5645 5643 5641 5639 5637 5635 5633 5632 5630 5629 5628 5628 5629 5629 5631 5632 5634 5636 5637 5639 5640 5640 5641 5642 5642 5643 5645 5645 5647 5648 5650 5655 5656 5657 5658 5659 5660 5661 5662 5662 5663
5645 5642 5640 5638 5635 5633 5631 5629 5627 5625 5623 5621 5620 5620 5620 5621 5622 5623 5624 5625 5626 5628 5628 5629 5629 5630 5630 5631 5632 5632 5633 5633 5635 5639 5641 5642 5642 5643 5644 5645 5646 5646 5647
5640 5638 5636 5633 5631 5628 5626 5623 5621 5619 5617 5615 5614 5613 5613 5613 5614 5614 5615 5616 5616 5617 5617 5617 5618 5618 5618 5618 5618 5619 5619 5619 5620 5622 5624 5625 5626 5626 5627 5628 5628 5629 5629
5637 5634 5632 5629 5627 5624 5621 5619 5616 5614 5612 5610 5609 5608 5607 5607 5606 5607 5607 5607 5607 5607 5607 5606 5606 5606 5606 5605 5605 5605 5604 5605 5605 5606 5607 5608 5609 5609 5609 5610 5611 5612 5612
5633 5631 5628 5626 5623 5620 5618 5615 5612 5610 5608 5606 5605 5603 5602 5601 5600 5600 5600 5599 5598 5597 5596 5595 5594 5593 5593 5592 5591 5591 5590 5590 5590 5590 5591 5591 5591 5592 5592 5593 5593 5594 5594
5630 5628 5625 5622 5619 5617 5614 5611 5609 5606 5604 5602 5600 5598 5597 5595 5594 5593 5592 5590 5589 5587 5586 5584 5583 5581 5580 5579 5578 5577 5576 5575 5575 5575 5574 5574 5574 5574 5575 5575 5575 5575 5576
5627 5625 5622 5619 5616 5613 5610 5607 5605 5602 5599 5597 5595 5593 5592 5590 5587 5585 5583 5581 5579 5577 5575 5573 5571 5569 5568 5566 5564 5563 5561 5560 5559 5559 5558 5557 5557 5557 5557 5557 5556 5555 5556
5624 5621 5618 5615 5612 5609 5606 5603 5601 5598 5595 5592 5589 5587 5585 5582 5580 5577 5575 5572 5570 5567 5565 5562 5560 5557 5555 5553 5550 5548 5546 5544 5543 5542 5542 5540 5539 5537 5537 5536 5536 5536 5536
5621 5618 5615 5612 5608 5605 5602 5599 5596 5593 5590 5586 5583 5580 5577 5574 5571 5568 5566 5563 5560 5557 5554 5550 5547 5545 5542 5539 5536 5534 5532 5529 5527 5525 5524 5522 5520 5518 5517 5516 5515 5514 5515
5616 5613 5610 5607 5604 5600 5597 5594 5590 5587 5583 5580 5576 5573 5569 5566 5563 5559 5556 5553 5550 5546 5543 5539 5535 5531 5528 5524 5521 5519 5516 5513 5510 5508 5505 5503 5501 5499 5496 5495 5494 5493 5492
5612 5608 5605 5601 5598 5595 5591 5588 5584 5580 5576 5572 5568 5565 5561 5557 5554 5550 5546 5542 5539 5535 5531 5527 5522 5518 5514 5510 5506 5503 5499 5496 5493 5490 5487 5484 5482 5479 5477 5475 5473 5472 5472
5606 5602 5599 5595 5592 5588 5584 5580 5576 5572 5568 5563 5559 5556 5552 5548 5544 5540 5536 5532 5527 5523 5519 5514 5509 5505 5500 5496 5491 5487 5483 5479 5476 5473 5470 5467 5464 5461 5459 5456 5454 5452 5451
5599 5595 5592 5588 5584 5580 5576 5572 5568 5564 5559 5555 5551 5547 5542 5538 5534 5529 5525 5520 5515 5511 5506 5501 5496 5491 5486 5481 5477 5472 5468 5464 5460 5456 5453 5450 5446 5443 5440 5438 5435 5433 5432
5591 5588 5584 5580 5576 5572 5568 5563 5559 5555 5550 5545 5541 5537 5532 5528 5523 5518 5513 5508 5503 5498 5493 5488 5483 5477 5472 5467 5462 5458 5453 5449 5444 5440 5436 5432 5429 5425 5422 5420 5417 5416 5414
5583 5580 5576 5571 5567 5563 5558 5554 5549 5545 5540 5535 5531 5526 5521 5516 5511 5506 5501 5496 5490 5485 5480 5475 5469 5464 5458 5453 5448 5443 5438 5433 5428 5424 5419 5415 5411 5408 5405 5402 5400 5398 5397
5574 5570 5566 5562 5558 5553 5549 5544 5539 5534 5529 5524 5519 5514 5509 5504 5499 5494 5488 5482 5477 5471 5466 5460 5455 5449 5444 5439 5434 5428 5423 5418 5413 5408 5403 5399 5395 5391 5388 5385 5382 5381 5380
5565 5561 5557 5553 5548 5544 5539 5534 5529 5523 5518 5513 5508 5502 5497 5492 5486 5480 5475 5469 5463 5458 5452 5446 5440 5435 5430 5424 5419 5414 5408 5403 5398 5393 5388 5384 5380 5376 5372 5369 5367 5366 5365
5555 5551 5547 5542 5538 5533 5528 5523 5518 5512 5507 5501 5496 5490 5485 5479 5473 5467 5462 5456 5450 5444 5438 5432 5427 5421 5416 5410 5405 5399 5394 5389 5384 5379 5374 5369 5365 5361 5358 5355 5354 5353 5352
5545 5541 5536 5532 5527 5522 5517 5512 5506 5500 5495 5489 5484 5478 5473 5467 5461 5455 5448 5443 5436 5430 5424 5418 5413 5407 5402 5397 5391 5386 5381 5376 5371 5366 5362 5357 5353 5349 5346 5344 5343 5342 5341
5534 5530 5525 5521 5516 5511 5505 5500 5494 5489 5483 5477 5472 5466 5460 5454 5448 5442 5436 5430 5423 5417 5411 5405 5399 5394 5389 5384 5379 5374 5369 5364 5360 5355 5351 5347 5343 5340 5337 5335 5334 5333 5332
5523 5519 5514 5509 5504 5499 5494 5488 5483 5477 5471 5465 5460 5454 5448 5441 5435 5429 5423 5417 5411 5405 5399 5393 5387 5382 5377 5372 5368 5363 5359 5354 5350 5345 5341 5338 5334 5331 5329 5327 5326 5325 5325
5512 5507 5503 5498 5492 5487 5482 5476 5471 5465 5460 5453 5447 5441 5435 5430 5424 5418 5412 5406 5400 5394 5388 5382 5376 5371 5367 5362 5358 5354 5349 5345 5341 5337 5333 5330 5327 5324 5322 5320 5319 5318 5318
5501 5496 5491 5486 5481 5475 5470 5465 5459 5454 5448 5442 5436 5430 5425 5419 5413 5407 5402 5396 5390 5384 5378 5372 5367 5362 5358 5353 5349 5345 5341 5337 5334 5330 5326 5323 5320 5318 5316 5314 5313 5313 5312
5489 5485 5480 5474 5469 5464 5459 5454 5448 5443 5437 5431 5426 5420 5414 5409 5403 5398 5392 5386 5380 5374 5369 5363 5358 5354 5350 5345 5341 5338 5334 5330 5327 5324 5321 5318 5315 5313 5311 5309 5308 5307 5307
5478 5473 5468 5463 5458 5453 5448 5443 5438 5432 5427 5421 5416 5411 5405 5400 5395 5389 5384 5378 5372 5366 5361 5356 5351 5347 5343 5339 5335 5331 5328 5324 5321 5318 5316 5313 5311 5309 5307 5305 5304 5303 5303
5467 5462 5457 5452 5447 5442 5437 5432 5427 5422 5417 5412 5407 5402 5397 5392 5387 5381 5376 5370 5364 5359 5354 5349 5344 5340 5336 5333 5329 5325 5322 5319 5316 5313 5311 5309 5307 5305 5303 5302 5301 5300 5299